CAPE
0 2 2 0 0 0 0 0 0 0 0 0 0 0 0 0 0 0 0 0 0 0 0 0 0 0 0 0 0 0 0 0 0 0 0 0 0 0 0 0 0 0 0 0 0
0 0 0 0 0 0 0 0 0 0 0 0 0 0 0 0 0 0 0 0 0 0 0 0 0 0 0 0 0 0 0 0 0 0 0 0 0 0 0 0 0 0 0 0 0
0 0 0 0 0 0 0 0 0 0 0 0 0 0 0 0 0 0 0 0 0 0 0 0 0 0 0 0 0 0 0 0 0 0 0 0 0 0 0 0 0 0 0 0 0
1 0 0 0 0 0 0 0 0 0 0 0 0 0 0 0 0 0 0 0 0 0 0 0 0 0 0 0 0 0 0 0 0 0 0 0 0 0 0 0 0 0 0 0 0
0 0 0 0 0 0 0 0 0 0 0 0 0 0 0 0 0 0 0 0 0 0 0 0 0 0 0 0 0 0 0 0 0 0 0 0 0 0 0 0 0 0 0 0 0
0 0 0 0 0 0 0 0 0 0 0 0 0 0 0 0 0 0 0 0 0 0 0 0 0 0 0 0 0 0 0 0 0 0 0 0 0 0 0 0 0 0 0 0 0
0 0 0 0 0 0 0 0 0 0 0 0 0 0 0 0 0 0 0 0 0 0 0 0 0 0 0 0 0 0 0 0 0 0 0 0 0 0 0 0 0 0 0 0 0
0 0 0 0 0 0 0 0 0 0 0 0 0 0 0 0 0 0 0 0 0 0 0 0 0 0 0 0 0 0 0 0 0 0 0 0 0 0 0 0 0 0 0 0 0
0 0 0 0 0 0 0 0 0 0 0 0 0 0 0 0 0 0 0 0 0 0 0 0 0 0 0 0 0 0 0 0 0 0 0 0 0 0 0 0 0 0 0 0 0
0 0 0 0 0 0 0 0 0 0 0 0 0 0 0 0 0 0 0 0 0 0 0 0 0 0 0 0 0 0 0 0 0 0 0 0 0 0 0 0 0 0 0 0 0
0 0 0 0 0 0 0 0 0 0 0 0 0 0 0 0 0 0 0 0 0 0 0 0 0 0 0 0 0 0 0 0 0 0 0 0 0 0 0 0 0 0 0 0 0
0 0 0 0 0 0 0 0 0 0 0 0 0 0 0 0 0 0 0 0 0 0 0 0 0 0 0 0 0 0 0 0 0 0 0 0 0 0 0 0 0 0 0 0 0
0 0 0 0 0 0 0 0 0 0 0 0 0 0 0 0 0 0 0 0 0 0 0 0 0 0 0 0 0 0 0 0 0 0 0 0 0 0 0 0 0 0 0 0 0
0 0 0 0 0 0 0 0 0 0 0 0 0 0 0 0 0 0 0 0 0 0 0 0 0 0 0 0 0 0 0 0 0 0 0 0 0 0 0 0 0 0 0 0 0
0 0 0 0 0 0 0 0 0 0 0 0 0 0 0 0 0 0 0 0 0 0 0 0 0 0 0 0 0 0 0 0 0 0 0 0 0 0 0 5 0 0 0 0 0
0 0 0 0 0 0 0 0 0 0 0 0 0 0 0 0 0 0 0 0 0 0 0 0 0 0 0 0 0 0 0 0 0 0 0 0 0 0 0 1 0 0 0 0 0
0 0 0 0 0 0 0 0 0 0 0 0 0 0 0 0 0 0 0 0 0 0 0 0 0 0 0 0 0 0 0 0 0 0 0 0 6 5 0 0 0 0 0 0 0
0 0 0 0 0 0 0 0 0 0 0 0 0 0 0 0 0 0 0 0 0 0 0 0 0 0 0 0 0 0 0 6 8 3 12 7 3 31 0 0 0 0 0 0 0
0 0 0 0 0 0 0 0 0 0 0 0 0 0 0 0 0 0 0 0 0 0 0 0 0 0 0 0 0 0 0 0 0 0 5 0 0 0 0 0 0 0 0 0 0
0 0 0 0 0 0 0 0 0 0 0 0 0 0 0 0 0 0 0 0 0 0 0 0 0 0 0 0 0 0 0 0 0 0 2 10 11 8 0 0 0 0 0 0 0
0 0 0 0 0 0 0 0 0 0 0 0 0 0 0 0 0 0 1 0 0 0 0 0 0 0 0 0 0 0 0 0 0 0 5 2 4 0 0 0 0 0 0 0 0
0 0 0 0 0 0 0 0 0 0 0 0 0 0 2 0 0 1 0 5 0 0 0 0 0 0 0 0 0 0 0 0 0 2 1 0 0 0 0 0 0 0 0 0 0
2 2 0 0 1 1 0 0 0 0 0 2 1 0 1 3 5 0 0 1 0 0 1 1 0 2 4 6 0 0 0 0 0 1 0 0 0 0 0 0 0 0 0 0 0
3 4 3 0 0 2 4 3 1 2 0 0 2 0 2 2 4 1 1 6 0 0 0 0 0 2 1 3 0 0 0 0 0 0 0 0 0 0 0 0 0 0 0 0 2
23 9 1 8 8 11 0 0 2 2 5 2 2 0 6 9 8 3 14 5 11 5 1 0 1 4 6 3 2 2 0 0 0 0 0 0 0 0 0 0 0 0 1 0 0
19 12 0 0 0 0 0 1 3 12 14 7 17 9 18 24 6 5 6 4 11 6 7 2 1 4 0 4 1 0 0 0 0 0 0 0 0 0 0 0 4 13 8 2 0
7 4 23 4 2 5 2 5 3 3 8 11 19 15 13 21 6 10 4 6 11 10 5 4 3 0 0 0 0 0 0 0 0 0 0 0 0 0 0 3 10 13 10 3 0
CIN
-0 -0 -0 -0 -0 -0 -0 -0 -0 -0 -0 -0 -0 -0 -0 -0 -0 -0 -0 -0 -0 -0 -0 -0 -0 -0 -0 -0 -0 -0 -0 -0 -0 -0 -0 -0 -0 -0 -0 -0 -0 -0 -0 -0 -0
-0 -0 -0 -0 -0 -0 -0 -0 -0 -0 -0 -0 -0 -0 -0 -0 -0 -0 -0 -0 -0 -0 -0 -0 -0 -0 -0 -0 -0 -0 -0 -0 -0 -0 -0 -0 -0 -0 -0 -0 -0 -0 -0 -0 -0
-1 -0 -0 -0 -0 -0 -0 -0 -0 -0 -0 -0 -0 -0 -0 -0 -0 -0 -0 -0 -0 -0 -0 -0 -0 -0 -0 -0 -0 -0 -0 -0 -0 -0 -0 -0 -0 -0 -0 -0 -0 -0 -0 -0 -0
-1 -0 -0 -0 -0 -0 -0 -0 -0 -0 -0 -0 -0 -0 -0 -0 -0 -0 -0 -0 -0 -0 -0 -0 -0 -0 -0 -0 -0 -0 -0 -0 -0 -0 -0 -0 -0 -0 -0 -0 -0 -0 -0 -0 -0
-0 -0 -0 -0 -0 -0 -0 -0 -0 -0 -0 -0 -0 -0 -0 -0 -0 -0 -0 -0 -0 -0 -0 -0 -0 -0 -0 -0 -0 -0 -0 -0 -0 -0 -0 -0 -0 -0 -0 -0 -0 -0 -0 -0 -0
-0 -0 -0 -0 -0 -0 -0 -0 -0 -0 -0 -0 -0 -0 -0 -0 -0 -0 -0 -0 -0 -0 -0 -0 -0 -0 -0 -0 -0 -0 -0 -0 -0 -0 -0 -0 -0 -0 -0 -0 -0 -0 -0 -0 -0
-0 -0 -0 -0 -0 -0 -0 -0 -0 -0 -0 -0 -0 -0 -0 -0 -0 -0 -0 -0 -0 -0 -0 -0 -0 -0 -0 -0 -0 -0 -0 -0 -0 -0 -0 -0 -0 -0 -0 -0 -0 -0 -0 -0 -0
-0 -0 -0 -0 -0 -0 -0 -0 -0 -0 -0 -0 -0 -0 -0 -0 -0 -0 -0 -0 -0 -0 -0 -0 -0 -0 -0 -0 -0 -0 -0 -0 -0 -0 -0 -0 -0 -0 -0 -0 -0 -0 -0 -0 -0
-0 -0 -0 -0 -0 -0 -0 -0 -0 -0 -0 -0 -0 -0 -0 -0 -0 -0 -0 -0 -0 -0 -0 -0 -0 -0 -0 -0 -0 -0 -0 -0 -0 -0 -0 -0 -0 -0 -0 -0 -0 -0 -0 -0 -0
-0 -0 -0 -0 -0 -0 -0 -0 -0 -0 -0 -0 -0 -0 -0 -0 -0 -0 -0 -0 -0 -0 -0 -0 -0 -0 -0 -0 -0 -0 -0 -0 -0 -0 -0 -0 -0 -0 -0 -0 -0 -0 -0 -0 -0
-0 -0 -0 -0 -0 -0 -0 -0 -0 -0 -0 -0 -0 -0 -0 -0 -0 -0 -0 -0 -0 -0 -0 -0 -0 -0 -0 -0 -0 -0 -0 -0 -0 -0 -0 -0 -0 -0 -0 -0 -0 -0 -0 -0 -0
-0 -0 -0 -0 -0 -0 -0 -0 -0 -0 -0 -0 -0 -0 -0 -0 -0 -0 -0 -0 -0 -0 -0 -0 -0 -0 -0 -0 -0 -0 -0 -0 -0 -0 -0 -0 -0 -0 -0 -0 -0 -0 -0 -0 -0
-0 -0 -0 -0 -0 -0 -0 -0 -0 -0 -0 -0 -0 -0 -0 -0 -0 -0 -0 -0 -0 -0 -0 -0 -0 -0 -0 -0 -0 -0 -0 -0 -0 -0 -0 -0 -0 -0 -0 -0 -0 -0 -0 -0 -0
-0 -0 -0 -0 -0 -0 -0 -0 -0 -0 -0 -0 -0 -0 -0 -0 -0 -0 -0 -0 -0 -0 -0 -0 -0 -0 -0 -0 -0 -0 -0 -0 -0 -0 -0 -0 -0 -0 -0 -0 -0 -0 -0 -0 -0
-0 -0 -0 -0 -0 -0 -0 -0 -0 -0 -0 -0 -0 -0 -0 -0 -0 -0 -0 -0 -0 -0 -0 -0 -0 -0 -0 -0 -0 -0 -0 -0 -0 -0 -0 -0 -0 -0 -0 -15 -0 -0 -0 -0 -0
-0 -0 -0 -0 -0 -0 -0 -0 -0 -0 -0 -0 -0 -0 -0 -0 -0 -0 -0 -0 -0 -0 -0 -0 -0 -0 -0 -0 -0 -0 -0 -0 -0 -0 -0 -0 -0 -0 -0 -16 -0 -0 -0 -0 -0
-0 -0 -0 -0 -0 -0 -0 -0 -0 -0 -0 -0 -0 -0 -0 -0 -0 -0 -0 -0 -0 -0 -0 -0 -0 -0 -0 -0 -0 -0 -0 -0 -0 -0 -0 -0 -8 -2 -0 -0 -0 -0 -0 -0 -0
-0 -0 -0 -0 -0 -0 -0 -0 -0 -0 -0 -0 -0 -0 -0 -0 -0 -0 -0 -0 -0 -0 -0 -0 -0 -0 -0 -0 -0 -0 -0 -3 -2 -4 -2 -12 -19 -18 -0 -0 -0 -0 -0 -0 -0
-0 -0 -0 -0 -0 -0 -0 -0 -0 -0 -0 -0 -0 -0 -0 -0 -0 -0 -0 -0 -0 -0 -0 -0 -0 -0 -0 -0 -0 -0 -0 -0 -0 -0 -4 -0 -0 -0 -0 -0 -0 -0 -0 -0 -0
-0 -0 -0 -0 -0 -0 -0 -0 -0 -0 -0 -0 -0 -0 -0 -0 -0 -0 -0 -0 -0 -0 -0 -0 -0 -0 -0 -0 -0 -0 -0 -0 -0 -0 -2 -4 -3 -88 -0 -0 -0 -0 -0 -0 -0
-0 -0 -0 -0 -0 -0 -0 -0 -0 -0 -0 -0 -0 -0 -0 -0 -0 -1 -2 -3 -0 -0 -0 -0 -0 -0 -0 -0 -1 -0 -0 -0 -0 -0 -0 -5 -5 -0 -0 -0 -0 -0 -0 -0 -0
-0 -0 -0 -0 -0 -0 -0 -0 -0 -0 -0 -0 -0 -1 -2 -0 -2 -2 -0 -3 -0 -0 -0 -0 -0 -0 -0 -0 -0 -0 -0 -0 -0 -2 -3 -0 -0 -0 -0 -0 -0 -0 -0 -0 -0
-1 -1 -0 -0 -0 -0 -0 -0 -0 -0 -0 -3 -1 -1 -2 -1 -1 -0 -0 -0 -0 -0 -3 -2 -2 -2 -4 -6 -0 -0 -0 -0 -0 -0 -0 -1 -1 -0 -0 -0 -0 -0 -0 -0 -0
-0 -0 -1 -0 -0 -0 -0 -2 -1 -8 -0 -0 -1 -0 -1 -0 -6 -1 -0 -3 -0 -0 -0 -0 -0 -2 -2 -13 -0 -0 -0 -0 -0 -0 -0 -0 -0 -0 -0 -0 -0 -0 -0 -0 -2
-2 -0 -1 -0 -0 -0 -0 -0 -0 -0 -0 -0 -1 -0 -1 -0 -0 -1 -2 -3 -1 -0 -0 -0 -0 -1 -2 -2 -3 -0 -0 -0 -0 -0 -0 -0 -0 -0 -0 -0 -0 -0 -1 -0 -0
-0 -2 -9 -0 -0 -0 -0 -0 -0 -0 -2 -1 -0 -2 -3 -1 -1 -2 -3 -2 -2 -2 -1 -5 -0 -1 -3 -3 -5 -0 -0 -0 -0 -0 -0 -0 -0 -0 -0 -0 -3 -4 -2 -2 -1
-1 -0 -0 -0 -11 -0 -1 -1 -1 -1 -1 -1 -2 -2 -1 -1 -2 -4 -1 -1 -3 -1 -0 -0 -0 -0 -1 -0 -0 -0 -0 -0 -0 -0 -0 -0 -0 -0 -0 -2 -3 -1 -2 -2 -0
Wind_Speed
24 22 22 24 25 25 25 25 26 27 27 27 28 27 27 27 22 12 17 17 16 14 13 13 12 12 12 13 12 12 13 13 14 14 16 17 16 15 20 18 17 19 19 22 22
22 21 22 25 26 26 26 26 28 28 28 28 28 29 29 29 19 16 16 16 14 13 13 13 13 12 12 13 13 11 13 16 17 17 16 18 18 21 22 19 19 20 17 18 23
24 24 26 27 28 29 28 29 29 29 30 30 31 31 27 23 18 17 15 15 14 13 14 14 14 13 14 14 11 13 13 19 16 17 18 20 21 24 22 22 22 24 27 30 31
26 27 28 29 30 30 31 31 32 33 32 32 31 26 21 16 21 17 16 15 14 12 13 15 15 15 16 15 15 16 14 18 19 19 19 21 26 24 24 26 26 26 27 30 30
28 29 30 31 32 32 33 34 36 35 33 31 28 22 18 16 17 16 15 15 13 13 13 15 15 16 17 18 18 14 19 20 18 19 19 22 22 25 27 28 25 23 24 26 28
29 31 31 33 34 35 36 37 38 35 30 27 23 20 18 19 18 16 15 15 15 13 14 13 16 17 18 18 17 21 20 22 21 22 21 22 26 25 24 20 23 25 26 26 27
30 31 33 34 36 37 37 38 38 30 26 24 21 19 18 19 15 14 14 15 15 15 15 13 14 14 19 19 18 19 24 24 22 22 21 23 24 21 24 20 27 29 30 28 28
31 32 33 35 37 39 39 40 36 25 22 23 20 17 19 16 16 14 13 14 14 15 16 17 14 15 15 20 21 22 24 28 18 19 19 22 31 27 20 24 28 34 33 31 31
31 33 34 36 38 39 40 39 29 21 23 21 18 17 18 15 15 16 15 16 15 14 16 15 13 16 17 22 27 20 28 28 25 24 24 23 30 26 27 30 36 35 31 29 28
31 33 34 35 37 38 38 36 23 19 22 19 17 18 16 18 18 17 15 15 15 15 16 15 17 19 20 22 33 34 35 34 34 28 24 28 32 35 35 33 34 31 28 27 28
30 32 33 34 35 35 36 26 28 19 30 24 24 20 21 22 15 15 17 16 15 15 22 17 24 27 27 28 30 33 35 38 33 31 33 33 36 31 32 32 32 29 27 26 27
30 32 33 34 31 32 30 27 26 25 29 21 19 19 19 19 19 15 16 17 17 22 21 23 29 27 26 28 31 32 36 37 35 31 30 34 36 37 40 36 27 25 24 26 27
30 31 33 34 28 28 28 28 27 24 26 21 19 20 19 17 18 18 16 17 20 25 25 28 29 28 31 31 33 33 34 37 38 36 34 37 42 35 22 22 20 21 25 27 26
30 31 33 35 24 29 27 29 29 24 27 22 19 17 17 18 18 17 16 19 21 28 29 31 30 31 33 34 33 41 32 35 37 40 47 35 52 35 26 24 24 25 26 24 25
30 31 32 29 28 27 28 31 28 22 31 21 20 17 19 22 23 19 18 21 29 32 30 37 36 35 37 36 33 39 35 34 38 43 45 44 46 39 35 27 22 23 24 22 27
30 29 31 25 23 27 29 31 25 26 28 23 22 24 25 23 27 28 27 24 29 34 32 36 32 32 35 33 32 33 38 39 40 41 50 44 43 45 37 34 17 19 21 25 28
29 28 27 25 27 30 30 29 31 30 22 25 25 27 34 37 35 32 35 34 35 44 41 41 38 31 31 37 31 30 38 50 51 46 50 37 40 37 21 17 17 20 24 25 28
27 25 22 25 27 28 29 30 34 28 29 26 31 36 40 39 36 34 35 39 33 33 42 47 54 34 24 31 38 37 37 45 56 54 50 36 37 28 17 16 18 21 25 28 30
25 23 24 26 26 24 28 32 32 33 30 36 41 41 36 30 33 37 38 42 37 34 41 48 48 34 30 31 31 41 42 33 43 41 47 41 33 22 18 19 21 25 29 31 32
27 28 25 26 22 23 27 32 31 30 34 35 41 34 41 38 40 41 41 37 37 32 32 39 56 40 34 31 30 30 32 37 32 41 44 34 32 28 19 20 22 27 31 34 36
25 27 26 22 21 24 32 31 32 31 31 33 36 40 41 43 41 41 39 39 37 35 30 37 40 46 33 36 38 31 34 30 32 33 37 35 26 16 18 23 29 31 34 36 37
25 31 24 21 30 27 31 30 28 30 29 33 33 35 40 42 43 41 41 36 31 32 41 35 37 47 45 35 28 29 33 30 31 32 28 30 33 17 22 30 34 35 37 39 39
28 29 23 24 33 32 31 31 31 34 34 33 33 35 38 40 41 36 36 31 32 31 32 30 34 47 41 27 24 27 22 21 24 26 29 32 28 17 29 33 34 37 38 39 38
27 32 27 27 28 31 33 36 36 30 34 31 33 34 35 37 30 37 39 34 32 30 28 29 35 37 44 40 27 29 29 26 24 28 30 27 32 32 37 37 36 37 38 37 36
26 30 28 33 32 33 33 34 38 38 31 31 33 34 38 41 41 41 37 35 31 28 27 27 36 34 34 32 31 30 29 26 24 25 28 31 33 35 34 34 34 36 36 37 38
28 29 28 30 29 33 33 35 38 35 35 37 36 36 36 38 37 45 40 37 35 27 26 24 33 31 31 27 26 27 25 23 22 21 23 27 31 28 24 29 31 33 35 37 37
22 22 27 29 31 33 35 34 34 34 33 32 35 37 38 35 32 31 31 31 27 28 25 24 26 26 30 21 23 26 19 16 17 17 18 22 20 24 28 29 31 31 33 35 35
Wind_Direction
326 315 309 311 311 308 305 301 300 298 296 293 293 293 292 293 279 35 10 13 18 36 39 34 42 38 40 28 26 22 0 355 353 354 349 345 345 346 328 328 334 325 324 324 329
313 309 307 310 309 308 304 302 302 300 295 292 292 293 299 321 3 11 16 23 32 39 38 35 25 30 24 17 16 14 354 350 348 343 340 336 333 325 324 325 324 321 326 330 324
308 307 311 310 310 309 306 304 303 299 296 295 296 311 337 352 3 6 22 24 25 29 17 16 14 12 1 6 7 2 351 343 344 339 333 326 323 320 319 316 319 316 310 309 309
311 311 311 312 311 309 307 306 306 303 300 300 311 340 354 8 347 7 12 13 14 17 14 7 5 2 355 354 358 344 345 337 335 335 331 325 319 317 314 310 314 315 314 312 311
317 315 313 313 312 309 309 311 311 310 314 327 335 350 0 358 353 4 10 11 14 11 4 357 354 351 345 345 343 335 334 333 331 326 324 321 316 313 310 309 314 317 318 317 316
318 317 315 313 312 310 310 314 316 318 334 343 350 358 356 342 360 7 10 10 8 10 3 2 354 351 340 338 337 336 329 325 323 321 319 316 314 314 317 319 316 316 316 315 317
321 321 320 318 316 313 311 317 321 334 343 349 353 356 350 345 7 10 10 5 6 3 353 357 352 349 346 337 339 335 325 325 319 321 322 323 316 307 310 313 312 313 313 314 316
325 325 325 322 319 316 312 317 324 344 351 351 352 356 346 2 1 6 4 0 359 357 352 349 350 343 339 337 329 324 323 320 332 330 325 321 312 317 316 310 309 310 310 309 316
326 325 325 324 321 318 313 315 337 348 354 353 356 351 347 11 4 0 2 356 360 358 357 360 355 339 337 327 324 321 318 319 318 325 318 311 312 315 314 307 305 307 309 314 316
333 328 326 325 323 322 319 318 352 354 354 358 360 353 1 350 353 352 357 356 353 354 350 346 342 334 331 327 317 320 316 315 313 317 313 308 304 308 307 304 303 304 308 311 316
341 336 332 330 327 329 333 353 347 352 344 343 336 341 341 336 344 350 350 348 346 341 329 337 327 320 324 322 320 317 314 311 313 315 308 306 306 308 309 304 301 301 307 312 316
338 335 333 332 334 338 349 356 355 345 333 347 349 350 351 352 343 348 347 340 339 327 328 324 319 325 326 322 318 315 312 311 313 317 313 310 306 308 304 302 302 304 308 315 318
335 336 333 330 339 348 354 355 350 351 335 342 349 347 352 358 349 352 357 347 333 326 325 316 317 326 322 319 316 313 311 312 310 313 308 307 303 308 308 309 306 306 311 315 320
334 332 331 322 348 344 348 347 348 354 332 336 348 356 359 355 345 355 356 345 333 325 323 318 321 317 315 313 314 309 314 310 310 310 305 310 303 302 304 298 298 302 310 316 322
336 335 335 342 341 343 344 343 348 353 323 340 345 1 352 342 341 342 345 334 322 318 318 312 316 313 311 312 314 308 315 310 308 305 305 300 300 300 296 294 291 302 314 323 327
335 337 336 347 349 345 341 342 348 333 321 333 340 338 336 337 331 331 328 327 324 317 310 308 312 313 311 314 313 312 310 306 304 302 297 301 297 298 295 299 289 307 320 322 326
333 338 340 344 337 339 340 342 329 321 338 332 333 332 326 322 321 322 322 318 318 316 314 315 313 309 316 312 313 310 313 308 304 301 298 304 301 306 314 316 307 311 316 323 326
337 340 345 341 339 340 338 334 320 327 323 331 327 323 319 321 321 323 323 318 321 316 314 314 314 323 324 318 315 313 310 305 304 305 305 308 307 306 315 316 315 318 321 322 320
340 340 337 340 341 343 334 324 322 325 328 324 322 319 322 327 323 323 321 319 320 324 316 316 310 324 322 318 318 313 308 307 304 301 300 299 295 308 307 310 316 318 319 319 316
331 329 331 340 346 338 327 319 320 328 325 323 319 320 318 321 319 321 321 323 322 327 327 317 310 317 320 321 312 305 314 307 305 306 300 301 298 301 300 309 320 322 320 317 312
331 328 337 346 345 331 320 320 323 327 329 324 320 316 315 316 316 315 315 318 321 323 325 322 313 313 314 314 312 310 308 303 302 297 303 305 306 322 317 320 318 319 317 315 315
331 323 340 343 327 327 323 325 329 326 328 323 322 319 318 318 315 314 314 317 327 324 317 319 317 312 311 313 314 308 307 306 303 305 299 299 295 316 317 315 314 315 315 316 316
326 325 336 336 321 321 322 321 324 322 322 322 321 322 320 318 319 319 320 328 328 326 323 327 316 315 316 321 321 318 313 309 310 303 296 300 304 315 318 317 318 314 319 317 315
327 320 328 328 327 323 322 320 319 328 322 322 319 322 321 318 318 318 316 323 325 324 323 321 309 304 305 310 315 310 312 307 300 299 301 294 299 298 310 314 315 317 317 320 320
327 321 324 320 320 319 323 321 317 318 322 324 321 318 317 315 315 314 317 321 322 321 320 319 311 310 307 308 306 305 303 301 296 294 294 302 303 306 308 312 318 320 321 317 316
323 323 326 321 323 321 319 318 316 317 318 318 315 319 318 313 314 315 318 320 320 324 320 320 313 316 311 311 311 308 307 302 301 301 301 303 306 310 318 318 319 319 320 317 320
334 332 324 321 321 319 317 318 320 323 320 319 319 319 316 317 321 321 319 316 312 314 319 320 322 322 319 324 322 316 315 307 311 311 310 309 314 322 317 316 318 322 326 327 329